Time,TemperatureF,DewpointF,PressureIn,WindDirection,WindDirectionDegrees,WindSpeedMPH,WindSpeedGustMPH,Humidity,HourlyPrecipIn,Conditions,Clouds,dailyrainin,SoftwareType,DateUTC
2013-08-06 00:01:00,63.0,62.0,30.11,WNW,286,0.0,-999.0,96,-99.99,,,-99.99,,2013-08-06 04:01:00,
2013-08-06 00:11:00,63.0,62.0,30.11,WNW,286,0.0,-999.0,96,-99.99,,,-99.99,,2013-08-06 04:11:00,
2013-08-06 00:33:00,63.0,62.0,30.10,WNW,286,0.0,-999.0,97,-99.99,,,-99.99,,2013-08-06 04:33:00,
2013-08-06 00:44:00,62.0,61.0,30.09,WNW,286,0.0,-999.0,97,-99.99,,,-99.99,,2013-08-06 04:44:00,
2013-08-06 00:53:00,62.0,61.0,30.09,WNW,286,0.0,-999.0,97,-99.99,,,-99.99,,2013-08-06 04:53:00,
2013-08-06 01:02:00,62.0,61.0,30.09,WNW,286,0.0,-999.0,97,-99.99,,,-99.99,,2013-08-06 05:02:00,
2013-08-06 01:11:00,62.0,61.0,30.10,WNW,286,0.0,-999.0,97,-99.99,,,-99.99,,2013-08-06 05:11:00,
2013-08-06 01:22:00,62.0,61.0,30.10,WNW,286,0.0,-999.0,97,-99.99,,,-99.99,,2013-08-06 05:22:00,
2013-08-06 01:32:00,62.0,61.0,30.11,WNW,286,0.0,-999.0,98,-99.99,,,-99.99,,2013-08-06 05:32:00,
2013-08-06 01:43:00,62.0,61.0,30.11,WNW,286,0.0,-999.0,98,-99.99,,,-99.99,,2013-08-06 05:43:00,
2013-08-06 01:53:00,63.0,62.0,30.10,WNW,286,0.0,-999.0,98,-99.99,,,-99.99,,2013-08-06 05:53:00,
2013-08-06 02:02:00,63.0,62.0,30.10,WNW,286,0.0,-999.0,98,-99.99,,,-99.99,,2013-08-06 06:02:00,
2013-08-06 02:11:00,63.0,62.0,30.09,WNW,286,0.0,-999.0,98,-99.99,,,-99.99,,2013-08-06 06:11:00,
2013-08-06 02:22:00,64.0,63.0,30.09,WNW,286,0.0,-999.0,98,-99.99,,,-99.99,,2013-08-06 06:22:00,
2013-08-06 02:32:00,64.0,63.0,30.09,WNW,286,0.0,-999.0,98,-99.99,,,-99.99,,2013-08-06 06:32:00,
2013-08-06 02:43:00,64.0,63.0,30.09,WNW,286,0.0,-999.0,98,-99.99,,,-99.99,,2013-08-06 06:43:00,
2013-08-06 02:52:00,64.0,63.0,30.08,WNW,286,0.0,-999.0,98,-99.99,,,-99.99,,2013-08-06 06:52:00,
2013-08-06 03:01:00,64.0,63.0,30.08,WNW,286,0.0,-999.0,98,-99.99,,,-99.99,,2013-08-06 07:01:00,
2013-08-06 03:12:00,64.0,63.0,30.08,WNW,286,0.0,-999.0,98,-99.99,,,-99.99,,2013-08-06 07:12:00,
2013-08-06 03:22:00,64.0,63.0,30.08,WNW,286,0.0,-999.0,98,-99.99,,,-99.99,,2013-08-06 07:22:00,
2013-08-06 03:32:00,63.0,62.0,30.07,WNW,286,0.0,-999.0,98,-99.99,,,-99.99,,2013-08-06 07:32:00,
2013-08-06 03:43:00,63.0,62.0,30.07,WNW,286,0.0,-999.0,98,-99.99,,,-99.99,,2013-08-06 07:43:00,
2013-08-06 03:53:00,64.0,63.0,30.07,WNW,286,0.0,-999.0,98,-99.99,,,-99.99,,2013-08-06 07:53:00,
2013-08-06 04:02:00,64.0,63.0,30.07,WNW,286,0.0,-999.0,98,-99.99,,,-99.99,,2013-08-06 08:02:00,
2013-08-06 04:11:00,64.0,63.0,30.07,WNW,286,0.0,-999.0,98,-99.99,,,-99.99,,2013-08-06 08:11:00,
2013-08-06 04:22:00,64.0,63.0,30.07,WNW,286,0.0,-999.0,98,-99.99,,,-99.99,,2013-08-06 08:22:00,
2013-08-06 04:33:00,64.0,63.0,30.07,WNW,286,0.0,-999.0,98,-99.99,,,-99.99,,2013-08-06 08:33:00,
2013-08-06 04:43:00,64.0,63.0,30.07,WNW,286,0.0,-999.0,97,-99.99,,,-99.99,,2013-08-06 08:43:00,
2013-08-06 04:52:00,64.0,63.0,30.07,WNW,286,0.0,-999.0,97,-99.99,,,-99.99,,2013-08-06 08:52:00,
2013-08-06 05:01:00,64.0,63.0,30.07,WNW,286,0.0,-999.0,97,-99.99,,,-99.99,,2013-08-06 09:01:00,
2013-08-06 05:11:00,64.0,63.0,30.08,WNW,286,0.0,-999.0,97,-99.99,,,-99.99,,2013-08-06 09:11:00,
2013-08-06 05:32:00,64.0,63.0,30.09,WNW,286,0.0,-999.0,97,-99.99,,,-99.99,,2013-08-06 09:32:00,
2013-08-06 05:43:00,64.0,63.0,30.09,WNW,286,0.0,-999.0,97,-99.99,,,-99.99,,2013-08-06 09:43:00,
2013-08-06 05:52:00,64.0,63.0,30.09,WNW,286,0.0,-999.0,97,-99.99,,,-99.99,,2013-08-06 09:52:00,
2013-08-06 06:01:00,64.0,63.0,30.09,WNW,286,0.0,-999.0,96,-99.99,,,-99.99,,2013-08-06 10:01:00,
2013-08-06 06:12:00,64.0,63.0,30.08,WNW,286,0.0,-999.0,97,-99.99,,,-99.99,,2013-08-06 10:12:00,
2013-08-06 06:32:00,63.0,62.0,30.08,WNW,286,0.0,-999.0,97,-99.99,,,-99.99,,2013-08-06 10:32:00,
2013-08-06 06:43:00,63.0,62.0,30.08,WNW,286,0.0,-999.0,97,-99.99,,,-99.99,,2013-08-06 10:43:00,
2013-08-06 06:52:00,63.0,62.0,30.08,WNW,286,0.0,-999.0,97,-99.99,,,-99.99,,2013-08-06 10:52:00,
2013-08-06 07:02:00,63.0,62.0,30.09,WNW,286,0.0,-999.0,97,-99.99,,,-99.99,,2013-08-06 11:02:00,
2013-08-06 07:11:00,63.0,62.0,30.09,WNW,286,0.0,-999.0,97,-99.99,,,-99.99,,2013-08-06 11:11:00,
2013-08-06 07:32:00,63.0,62.0,30.10,WNW,286,0.0,-999.0,97,-99.99,,,-99.99,,2013-08-06 11:32:00,
2013-08-06 07:43:00,63.0,62.0,30.10,WNW,286,0.0,-999.0,98,-99.99,,,-99.99,,2013-08-06 11:43:00,
2013-08-06 07:53:00,63.0,62.0,30.10,WNW,286,0.0,-999.0,98,-99.99,,,-99.99,,2013-08-06 11:53:00,
2013-08-06 08:02:00,63.0,62.0,30.10,WNW,286,0.0,-999.0,98,-99.99,,,-99.99,,2013-08-06 12:02:00,
2013-08-06 08:11:00,64.0,63.0,30.11,WNW,286,0.0,-999.0,98,-99.99,,,-99.99,,2013-08-06 12:11:00,
2013-08-06 08:22:00,64.0,63.0,30.11,WNW,286,0.0,-999.0,98,-99.99,,,-99.99,,2013-08-06 12:22:00,
2013-08-06 08:32:00,64.0,63.0,30.11,WNW,286,0.0,-999.0,98,-99.99,,,-99.99,,2013-08-06 12:32:00,
2013-08-06 08:43:00,65.0,64.0,30.11,WNW,286,0.0,-999.0,98,-99.99,,,-99.99,,2013-08-06 12:43:00,
2013-08-06 08:52:00,65.0,64.0,30.11,WNW,286,0.0,-999.0,97,-99.99,,,-99.99,,2013-08-06 12:52:00,
2013-08-06 09:02:00,65.0,64.0,30.11,WNW,286,0.0,-999.0,97,-99.99,,,-99.99,,2013-08-06 13:02:00,
2013-08-06 09:11:00,66.0,65.0,30.11,WNW,286,0.0,-999.0,96,-99.99,,,-99.99,,2013-08-06 13:11:00,
2013-08-06 09:22:00,66.0,65.0,30.11,WNW,286,0.0,-999.0,96,-99.99,,,-99.99,,2013-08-06 13:22:00,
2013-08-06 09:32:00,67.0,65.0,30.11,WNW,286,0.0,-999.0,92,-99.99,,,-99.99,,2013-08-06 13:32:00,
2013-08-06 09:42:00,68.0,65.0,30.11,WNW,286,0.0,-999.0,91,-99.99,,,-99.99,,2013-08-06 13:42:00,
2013-08-06 10:01:00,69.0,64.0,30.11,South,189,0.0,-999.0,84,-99.99,,,-99.99,,2013-08-06 14:01:00,
2013-08-06 10:11:00,70.0,65.0,30.11,WSW,248,2.0,-999.0,84,-99.99,,,-99.99,,2013-08-06 14:11:00,
2013-08-06 10:22:00,70.0,65.0,30.11,WSW,248,2.0,-999.0,84,-99.99,,,-99.99,,2013-08-06 14:22:00,
2013-08-06 10:32:00,71.0,65.0,30.12,South,173,2.0,-999.0,80,-99.99,,,-99.99,,2013-08-06 14:32:00,
2013-08-06 10:42:00,72.0,64.0,30.13,NW,324,2.0,-999.0,77,-99.99,,,-99.99,,2013-08-06 14:42:00,
2013-08-06 11:02:00,70.0,64.0,30.12,NNW,336,1.0,-999.0,81,-99.99,,,-99.99,,2013-08-06 15:02:00,
2013-08-06 11:11:00,71.0,65.0,30.12,West,271,1.0,-999.0,80,-99.99,,,-99.99,,2013-08-06 15:11:00,
2013-08-06 11:33:00,71.0,65.0,30.13,SW,235,3.0,-999.0,81,-99.99,,,-99.99,,2013-08-06 15:33:00,
2013-08-06 11:44:00,71.0,64.0,30.13,NW,305,3.0,-999.0,78,-99.99,,,-99.99,,2013-08-06 15:44:00,
2013-08-06 11:52:00,71.0,64.0,30.13,NW,305,3.0,-999.0,78,-99.99,,,-99.99,,2013-08-06 15:52:00,
2013-08-06 12:02:00,72.0,64.0,30.12,SW,235,1.0,-999.0,77,-99.99,,,-99.99,,2013-08-06 16:02:00,
2013-08-06 12:11:00,73.0,64.0,30.11,WNW,292,1.0,-999.0,74,-99.99,,,-99.99,,2013-08-06 16:11:00,
2013-08-06 12:22:00,73.0,64.0,30.11,WNW,292,1.0,-999.0,74,-99.99,,,-99.99,,2013-08-06 16:22:00,
2013-08-06 12:32:00,73.0,63.0,30.12,WNW,296,1.0,-999.0,71,-99.99,,,-99.99,,2013-08-06 16:32:00,
2013-08-06 12:43:00,73.0,64.0,30.11,WNW,295,1.0,-999.0,74,-99.99,,,-99.99,,2013-08-06 16:43:00,
2013-08-06 12:52:00,73.0,64.0,30.11,WNW,295,1.0,-999.0,74,-99.99,,,-99.99,,2013-08-06 16:52:00,
2013-08-06 13:02:00,73.0,64.0,30.11,NW,321,2.0,-999.0,73,-99.99,,,-99.99,,2013-08-06 17:02:00,
2013-08-06 13:11:00,73.0,65.0,30.12,West,266,2.0,-999.0,75,-99.99,,,-99.99,,2013-08-06 17:11:00,
2013-08-06 13:21:00,73.0,65.0,30.12,West,266,2.0,-999.0,75,-99.99,,,-99.99,,2013-08-06 17:21:00,
2013-08-06 13:32:00,74.0,66.0,30.11,West,261,1.0,-999.0,75,-99.99,,,-99.99,,2013-08-06 17:32:00,
2013-08-06 13:44:00,74.0,65.0,30.11,SSW,211,2.0,-999.0,73,-99.99,,,-99.99,,2013-08-06 17:44:00,
2013-08-06 13:52:00,74.0,65.0,30.11,SSW,211,2.0,-999.0,73,-99.99,,,-99.99,,2013-08-06 17:52:00,
2013-08-06 14:01:00,74.0,64.0,30.11,WNW,290,2.0,-999.0,71,-99.99,,,-99.99,,2013-08-06 18:01:00,
2013-08-06 14:11:00,75.0,65.0,30.11,South,187,1.0,-999.0,70,-99.99,,,-99.99,,2013-08-06 18:11:00,
2013-08-06 14:32:00,75.0,65.0,30.11,SSW,194,1.0,-999.0,70,-99.99,,,-99.99,,2013-08-06 18:32:00,
2013-08-06 14:43:00,75.0,65.0,30.11,SSW,194,0.0,-999.0,72,-99.99,,,-99.99,,2013-08-06 18:43:00,
2013-08-06 14:52:00,75.0,65.0,30.11,SSW,194,0.0,-999.0,72,-99.99,,,-99.99,,2013-08-06 18:52:00,
2013-08-06 15:01:00,75.0,65.0,30.10,SSW,198,1.0,-999.0,71,-99.99,,,-99.99,,2013-08-06 19:01:00,
2013-08-06 15:11:00,75.0,65.0,30.10,SSW,198,1.0,-999.0,71,-99.99,,,-99.99,,2013-08-06 19:11:00,
2013-08-06 15:32:00,74.0,68.0,30.10,SSW,201,0.0,-999.0,81,-99.99,,,-99.99,,2013-08-06 19:32:00,
2013-08-06 15:42:00,75.0,66.0,30.10,SSW,200,1.0,-999.0,73,-99.99,,,-99.99,,2013-08-06 19:42:00,
2013-08-06 15:52:00,75.0,66.0,30.10,SSW,200,1.0,-999.0,73,-99.99,,,-99.99,,2013-08-06 19:52:00,
2013-08-06 16:01:00,76.0,66.0,30.09,SSW,200,1.0,-999.0,71,-99.99,,,-99.99,,2013-08-06 20:01:00,
2013-08-06 16:11:00,76.0,66.0,30.09,SSW,197,1.0,-999.0,71,-99.99,,,-99.99,,2013-08-06 20:11:00,
2013-08-06 16:32:00,76.0,65.0,30.09,SSE,165,2.0,-999.0,70,-99.99,,,-99.99,,2013-08-06 20:32:00,
2013-08-06 16:44:00,76.0,66.0,30.08,SSE,165,1.0,-999.0,71,-99.99,,,-99.99,,2013-08-06 20:44:00,
2013-08-06 17:11:00,76.0,67.0,30.09,SSE,159,1.0,-999.0,73,-99.99,,,-99.99,,2013-08-06 21:11:00,
2013-08-06 17:22:00,76.0,67.0,30.09,SSE,159,1.0,-999.0,73,-99.99,,,-99.99,,2013-08-06 21:22:00,
2013-08-06 17:32:00,75.0,68.0,30.09,ESE,105,2.0,-999.0,79,-99.99,,,-99.99,,2013-08-06 21:32:00,
2013-08-06 17:43:00,74.0,68.0,30.09,ESE,114,1.0,-999.0,83,-99.99,,,-99.99,,2013-08-06 21:43:00,
2013-08-06 17:52:00,74.0,68.0,30.09,SE,140,2.0,-999.0,83,-99.99,,,-99.99,,2013-08-06 21:52:00,
2013-08-06 18:01:00,74.0,68.0,30.09,SE,140,2.0,-999.0,83,-99.99,,,-99.99,,2013-08-06 22:01:00,
2013-08-06 18:11:00,73.0,68.0,30.09,SSE,151,2.0,-999.0,85,-99.99,,,-99.99,,2013-08-06 22:11:00,
2013-08-06 18:32:00,73.0,68.0,30.10,SE,146,2.0,-999.0,85,-99.99,,,-99.99,,2013-08-06 22:32:00,
2013-08-06 18:43:00,73.0,68.0,30.09,SE,128,1.0,-999.0,85,-99.99,,,-99.99,,2013-08-06 22:43:00,
2013-08-06 18:52:00,73.0,68.0,30.09,SSE,163,2.0,-999.0,84,-99.99,,,-99.99,,2013-08-06 22:52:00,
2013-08-06 19:01:00,73.0,68.0,30.09,SSE,163,2.0,-999.0,84,-99.99,,,-99.99,,2013-08-06 23:01:00,
2013-08-06 19:11:00,72.0,68.0,30.10,SE,129,1.0,-999.0,88,-99.99,,,-99.99,,2013-08-06 23:11:00,
2013-08-06 19:33:00,71.0,67.0,30.10,SE,129,0.0,-999.0,88,-99.99,,,-99.99,,2013-08-06 23:33:00,
2013-08-06 19:43:00,71.0,68.0,30.10,ESE,121,0.0,-999.0,89,-99.99,,,-99.99,,2013-08-06 23:43:00,
2013-08-06 19:52:00,70.0,67.0,30.11,SE,128,2.0,-999.0,89,-99.99,,,-99.99,,2013-08-06 23:52:00,
2013-08-06 20:01:00,70.0,67.0,30.11,SE,128,2.0,-999.0,89,-99.99,,,-99.99,,2013-08-07 00:01:00,
2013-08-06 20:11:00,70.0,67.0,30.11,SE,129,1.0,-999.0,90,-99.99,,,-99.99,,2013-08-07 00:11:00,
2013-08-06 20:21:00,69.0,66.0,30.11,SE,129,1.0,-999.0,91,-99.99,,,-99.99,,2013-08-07 00:21:00,
2013-08-06 20:32:00,69.0,66.0,30.11,SE,129,1.0,-999.0,91,-99.99,,,-99.99,,2013-08-07 00:32:00,
2013-08-06 20:43:00,69.0,66.0,30.11,SE,129,1.0,-999.0,91,-99.99,,,-99.99,,2013-08-07 00:43:00,
2013-08-06 20:52:00,69.0,67.0,30.11,SE,129,3.0,-999.0,92,-99.99,,,-99.99,,2013-08-07 00:52:00,
2013-08-06 21:01:00,69.0,67.0,30.11,SE,129,3.0,-999.0,92,-99.99,,,-99.99,,2013-08-07 01:01:00,
2013-08-06 21:11:00,68.0,66.0,30.11,SE,129,1.0,-999.0,92,-99.99,,,-99.99,,2013-08-07 01:11:00,
2013-08-06 21:22:00,68.0,66.0,30.11,SE,129,1.0,-999.0,92,-99.99,,,-99.99,,2013-08-07 01:22:00,
2013-08-06 21:43:00,68.0,66.0,30.12,SE,129,0.0,-999.0,93,-99.99,,,-99.99,,2013-08-07 01:43:00,
2013-08-06 21:52:00,68.0,66.0,30.12,SE,129,0.0,-999.0,93,-99.99,,,-99.99,,2013-08-07 01:52:00,
2013-08-06 22:02:00,67.0,65.0,30.12,SE,129,0.0,-999.0,94,-99.99,,,-99.99,,2013-08-07 02:02:00,
2013-08-06 22:11:00,67.0,65.0,30.13,SE,129,0.0,-999.0,94,-99.99,,,-99.99,,2013-08-07 02:11:00,
2013-08-06 22:33:00,67.0,65.0,30.13,SE,130,0.0,-999.0,93,-99.99,,,-99.99,,2013-08-07 02:33:00,
2013-08-06 22:43:00,67.0,65.0,30.13,West,262,1.0,-999.0,92,-99.99,,,-99.99,,2013-08-07 02:43:00,
2013-08-06 22:53:00,68.0,65.0,30.13,WSW,242,3.0,-999.0,90,-99.99,,,-99.99,,2013-08-07 02:53:00,
2013-08-06 23:01:00,68.0,65.0,30.13,WSW,242,3.0,-999.0,90,-99.99,,,-99.99,,2013-08-07 03:01:00,
2013-08-06 23:23:00,68.0,65.0,30.13,West,262,4.0,-999.0,89,-99.99,,,-99.99,,2013-08-07 03:23:00,
2013-08-06 23:32:00,68.0,65.0,30.13,West,276,2.0,-999.0,89,-99.99,,,-99.99,,2013-08-07 03:32:00,
2013-08-06 23:43:00,68.0,65.0,30.13,West,275,0.0,-999.0,90,-99.99,,,-99.99,,2013-08-07 03:43:00,
2013-08-06 23:52:00,68.0,65.0,30.13,West,275,0.0,-999.0,90,-99.99,,,-99.99,,2013-08-07 03:52:00,